Location: Brusselsch Zeekanaal
(50.8667°N, 4.3667°E)
Time: 00:13:30
(UTC+00:00)

Cosmos 2333 Rocket - Pass Details

Date: 08 November 2025
Orbit: 837 x 865 km, 70.8° (Epoch: 04 December)

Event Time Altitude Azimuth Distance (km) Brightness Sun altitude
Exits shadow 03:39:28 40° 360° (N) 1,240 3.0 -29.6°
Drops below altitude 10° 03:43:24 10° 25° (NNE) 2,508 5.0 -29.0°
Sets 03:45:56 0° 30° (NNE) 3,451 5.9 -28.6°
